DL3CSM-13 Weather Reports


Display with metric or nautical units.
time (UTC)temp
F
wind
direction
speed
MPH
gust
MPH
rain 1hr
in
rain 24hr
in
rain mn
in
humidity
%
barometer
mb
20260506084511 63 11 0.0 2.0 0.00 0.00 0.01 59 1007.0
20260506083011 62 0 0.0 0.0 0.00 0.00 0.01 59 1007.2
20260506081511 62 170 0.0 3.0 0.00 0.00 0.01 59 1007.3
20260506073011 58 0 0.0 0.0 0.00 0.00 0.01 68 1007.5
20260506071511 57 245 0.0 1.0 0.00 0.00 0.01 69 1007.6
20260506061513 52 0 0.0 0.0 0.00 0.00 0.01 85 1007.7
20260506043011 48 0 0.0 0.0 0.00 0.00 0.01 88 1008.0
20260506041511 48 0 0.0 0.0 0.00 0.00 0.01 88 1008.3
20260506040011 48 0 0.0 0.0 0.00 0.00 0.01 87 1008.5
20260506034511 48 0 0.0 0.0 0.00 0.00 0.01 86 1008.3
20260506031511 48 0 0.0 0.0 0.00 0.00 0.01 86 1008.6
20260506030011 48 0 0.0 0.0 0.00 0.00 0.01 86 1008.9
20260506023011 49 0 0.0 0.0 0.00 0.00 0.01 85 1008.7
20260506021511 49 0 0.0 0.0 0.00 0.00 0.01 84 1008.6
20260506020011 49 0 0.0 0.0 0.00 0.00 0.01 84 1008.8
20260506014511 50 0 0.0 0.0 0.00 0.00 0.01 83 1008.8
20260506011511 50 202 2.0 4.0 0.00 0.00 0.01 83 1009.0
20260506010011 51 197 1.0 2.0 0.00 0.00 0.01 82 1009.0
20260506003011 52 202 1.0 1.0 0.00 0.00 0.01 82 1009.1
20260506001511 53 0 0.0 0.0 0.00 0.00 0.01 80 1009.2
20260506000011 53 222 1.0 3.0 0.00 0.00 0.01 80 1009.5
20260505234511 54 232 2.0 3.0 0.00 0.00 0.01 80 1009.5
20260505233011 54 229 2.0 4.0 0.00 0.00 0.01 80 1009.7
20260505231511 55 209 2.0 3.0 0.00 0.00 0.01 78 1009.9
20260505230011 56 203 3.0 5.0 0.00 0.00 0.01 77 1009.8
20260505224511 56 206 2.0 8.0 0.00 0.00 0.01 80 1009.8
20260505223011 56 198 4.0 7.0 0.00 0.00 0.01 80 1009.6
20260505221511 56 203 4.0 6.0 0.00 0.00 0.01 80 1009.5
20260505220011 57 220 2.0 3.0 0.00 0.01 0.01 77 1009.6
20260505214511 57 213 3.0 7.0 0.00 0.01 0.01 75 1009.5
20260505213011 58 222 3.0 5.0 0.00 0.01 0.01 74 1009.7
20260505210011 59 227 3.0 5.0 0.00 0.01 0.01 72 1009.6
20260505201511 59 218 2.0 3.0 0.00 0.01 0.01 71 1008.9
20260505194511 58 222 2.0 5.0 0.00 0.01 0.01 71 1008.2
20260505193011 59 348 0.0 2.0 0.00 0.01 0.01 71 1007.6
20260505191511 59 258 0.0 2.0 0.00 0.01 0.01 70 1007.3
20260505184511 60 342 1.0 2.0 0.00 0.01 0.01 68 1007.3
20260505181511 60 226 3.0 5.0 0.00 0.01 0.01 67 1007.4
20260505173011 63 331 1.0 2.0 0.00 0.01 0.01 62 1006.9
20260505171511 63 324 0.0 3.0 0.00 0.01 0.01 63 1006.9
20260505170011 64 350 0.0 3.0 0.01 0.01 0.01 64 1006.8
20260505164511 63 332 0.0 1.0 0.01 0.01 0.01 67 1006.9
20260505163011 62 315 0.0 2.0 0.01 0.01 0.01 73 1007.0
20260505161511 62 202 0.0 2.0 0.01 0.01 0.01 69 1007.1
20260505153011 64 220 2.0 4.0 0.00 0.00 0.00 63 1007.2
20260505151511 65 226 3.0 5.0 0.00 0.00 0.00 61 1007.0
20260505124511 77 192 1.0 2.0 0.00 0.00 0.00 34 1006.4
20260505121512 78 5 1.0 3.0 0.00 0.00 0.00 33 1006.5
20260505120011 79 14 1.0 3.0 0.00 0.00 0.00 34 1006.7
20260505114511 78 202 1.0 3.0 0.00 0.00 0.00 32 1006.6
20260505113011 77 134 1.0 2.0 0.00 0.00 0.00 39 1006.8
20260505111511 77 136 1.0 4.0 0.00 0.00 0.00 39 1007.0
20260505101511 74 323 1.0 2.0 0.00 0.00 0.00 43 1007.8
20260505100011 74 259 1.0 4.0 0.00 0.00 0.00 42 1008.0
20260505094511 73 38 1.0 2.0 0.00 0.00 0.00 44 1008.1
20260505093011 73 122 1.0 3.0 0.00 0.00 0.00 46 1008.4
20260505091511 72 237 0.0 2.0 0.00 0.00 0.00 47 1008.5